Starlink 33834

operational
NORAD ID: 63586 Int'l Des: 2025-076 Owner: SPXS Country: US Constellation: starlink
LEOCIRCULAR

Starlink 33834について

説明を読み込み中...

リアルタイム位置

3D地球を読み込み中...

次回通過

高度履歴

Altitude vs Time

uPlot chart will show altitude changes over time

軌道要素

1 63586U 25076T 26036.28143766 .00038753 00000-0 14091-2 0 9995
2 63586 42.9996 144.7487 0000455 150.8480 209.2397 15.27611263 46875
Epoch: Feb 5, 2026 • Age: 8 hours

現在のステータス

高度 484.2 km
速度 7.63 km/s
衛星直下点 34.09°N, 169.33°W
打ち上げ日 Apr 14, 2025
運用期間 0.8 years
タイプ internet

技術仕様

分類 Payload
質量 575.00 kg
乾燥質量 530.00 kg
総質量 575.00 kg
長さ 0.30 m
直径 4.10 m
スパン 29.00 m
形状 Box + pan
製造者 SPXS
バスタイプ Starlink V2MO
フェーズステータス In Orbit
所有者/国 SPXS/US

大規模コンステレーション

Loading constellations...